Location: Unspecified
(36.5330°N, 0.0000°E)
Time: 01:14:59
(UTC+00:00)

DOVE 4 - Visible Passes

Search period start: 05 April 2026 00:00
Search period end: 15 April 2026 00:00
Orbit: 573 x 754 km, 97.7° (Epoch: 29 March)

Date Brightness Start Highest point End Pass type
(mag) Time Alt. Az. Time Alt. Az. Time Alt. Az.
5 Apr ? 19:39:15 10° N 19:44:16 64° WNW 19:49:12 10° SSW visible
6 Apr ? 20:10:25 10° N 20:14:50 31° WNW 20:19:13 10° SW visible
7 Apr ? 19:03:50 10° NNE 19:08:49 56° E 19:13:40 10° S visible
7 Apr ? 20:42:16 10° NNW 20:45:17 16° WNW 20:48:15 10° WSW visible
8 Apr ? 19:34:30 10° N 19:39:33 71° WNW 19:44:28 10° SSW visible
9 Apr ? 20:05:37 10° N 20:10:08 34° WNW 20:14:34 10° SW visible
10 Apr ? 18:59:09 10° NNE 19:04:03 50° E 19:08:48 10° S visible
10 Apr ? 20:37:20 10° NNW 20:40:34 17° WNW 20:43:46 10° WSW visible
11 Apr ? 19:29:45 10° N 19:34:48 78° WNW 19:39:41 10° SSW visible
12 Apr ? 20:00:47 10° N 20:05:23 37° WNW 20:09:52 10° SW visible
13 Apr ? 18:54:27 10° NNE 18:59:16 45° E 19:03:52 10° S visible
13 Apr ? 20:32:23 10° NNW 20:35:49 19° WNW 20:39:12 10° WSW visible
14 Apr ? 19:24:59 10° N 19:30:01 86° WNW 19:34:50 10° SSW visible
